Weather History for Clinton-Sherman, OK

Change the Weather History Date:

Sunday, January 6, 2013

  Actual Average Record
Temperature  
Mean Temperature 38 °F -  
Max Temperature 52 °F 46 °F 77 °F (2008)
Min Temperature 25 °F 27 °F 5 °F (2004)
Degree Days  
Heating Degree Days 26    
Moisture  
Dew Point 23 °F    
Average Humidity 62    
Maximum Humidity 85    
Minimum Humidity 31    
Precipitation  
Precipitation 0.00 in - - ()
Sea Level Pressure  
Sea Level Pressure 30.39 in    
Wind  
Wind Speed 7 mph (West)    
Max Wind Speed 12 mph    
Max Gust Speed -    
Visibility 10 miles    
Events      
Averages and records for this station are not official NWS values.
T = Trace of Precipitation, MM = Missing Value Source: NWS Daily Summary

Daily Weather History Graph

Daily Weather History Graph

Search for Another Location

Airport:

Trip Planner

Search our weather history database for the weather conditions in past years. The results will help you decide how hot, cold, wet, or windy it might be!

Date:

Astronomy

Jan. 06, 2013 Rise Set
Actual Time 7:46 AM CST 5:39 PM CST
Civil Twilight 7:18 AM CST 6:07 PM CST
Nautical Twilight 6:46 AM CST 6:39 PM CST
Astronomical Twilight 6:15 AM CST 7:10 PM CST
Moon 2:07 AM CST (1/6) 1:04 PM CST (1/6)
Length of Visible Light 10h 49m
Length of Day
9h 53m
Waning Crescent, 33% of the Moon is Illuminated
Jan 6
Waning Crescent
Jan 11
New
Jan 18
First Quarter
Jan 26
Full
Feb 3
Last Quarter

Hourly Weather History & Observations

Time (CST) Temp. Windchill Dew Point Humidity Pressure Visibility Wind Dir Wind Speed Gust Speed Precip Events Conditions
12:53 AM 30.9 °F 24.3 °F 23.0 °F 72% 30.38 in 10.0 mi NNW 6.9 mph - N/A   Clear
1:53 AM 30.9 °F 22.2 °F 24.1 °F 76% 30.39 in 10.0 mi NW 10.4 mph - N/A   Clear
2:53 AM 30.9 °F 21.7 °F 24.1 °F 76% 30.39 in 10.0 mi NW 11.5 mph - N/A   Clear
3:53 AM 28.9 °F 21.1 °F 21.9 °F 75% 30.40 in 10.0 mi NW 8.1 mph - N/A   Clear
4:53 AM 27.0 °F 18.0 °F 21.9 °F 81% 30.41 in 10.0 mi NW 9.2 mph - N/A   Clear
5:53 AM 28.9 °F 19.8 °F 21.9 °F 75% 30.41 in 10.0 mi NW 10.4 mph - N/A   Clear
6:53 AM 25.0 °F 19.3 °F 21.0 °F 85% 30.43 in 10.0 mi NW 4.6 mph - N/A   Clear
7:53 AM 26.1 °F 21.9 °F 21.0 °F 81% 30.45 in 10.0 mi WNW 3.5 mph - N/A   Clear
8:53 AM 32.0 °F 28.7 °F 25.0 °F 75% 30.46 in 10.0 mi NW 3.5 mph - N/A   Clear
10:53 AM 43.0 °F 39.5 °F 26.1 °F 51% 30.47 in 10.0 mi North 5.8 mph - N/A   Clear
11:53 AM 46.0 °F 43.9 °F 26.1 °F 46% 30.44 in 10.0 mi NE 4.6 mph - N/A   Clear
12:53 PM 46.9 °F - 24.1 °F 41% 30.41 in 10.0 mi Calm Calm - N/A   Clear
1:53 PM 48.0 °F - 23.0 °F 37% 30.38 in 10.0 mi WSW 4.6 mph - N/A   Clear
2:53 PM 50.0 °F - 21.9 °F 33% 30.35 in 10.0 mi Variable 4.6 mph - N/A   Clear
3:53 PM 52.0 °F - 21.9 °F 31% 30.35 in 10.0 mi Calm Calm - N/A   Clear
4:53 PM 48.9 °F - 23.0 °F 36% 30.35 in 10.0 mi SE 5.8 mph - N/A   Clear
5:53 PM 39.9 °F 35.1 °F 23.0 °F 51% 30.35 in 10.0 mi SSE 6.9 mph - N/A   Clear
6:53 PM 35.1 °F 29.3 °F 23.0 °F 61% 30.37 in 10.0 mi SSE 6.9 mph - N/A   Clear
8:53 PM 30.9 °F 22.2 °F 21.9 °F 69% 30.35 in 10.0 mi South 10.4 mph - N/A   Clear
9:53 PM 28.9 °F 20.4 °F 21.9 °F 75% 30.35 in 10.0 mi South 9.2 mph - N/A   Clear
10:53 PM 30.0 °F 20.5 °F 21.9 °F 72% 30.33 in 10.0 mi South 11.5 mph - N/A   Clear
11:53 PM 32.0 °F 23.0 °F 24.1 °F 73% 30.31 in 10.0 mi South 11.5 mph - N/A   Clear